Location: Coupvray
(48.8929°N, 2.7967°E)
Time: 07:44:11
(UTC+00:00)

Cosmos 1908 Rocket - Pass Details

Date: 14 July 2020
Orbit: 605 x 633 km, 82.5° (Epoch: 14 August)

Event Time Altitude Azimuth Distance (km) Brightness Sun altitude
Exits shadow 03:05:55 - 193° (SSW) 2,395 6.1 -7.6°
Reaches altitude 10° 03:06:52 10° 194° (SSW) 2,013 5.7 -7.5°
Maximum altitude 03:11:20 77° 280° (W) 655 3.6 -7.0°
Drops below altitude 10° 03:15:50 10° 7° (N) 2,023 7.1 -6.5°
Sets 03:18:05 0° 9° (N) 2,933 8.0 -6.2°
